Regional Weather Roundup
Issued by NWS

Home | Current Version | Previous Version | Graphics & Text | Print | Product List | Glossary On
Versions: 1 2 3 4 5 6 7 8 9 10 11 12 13 14 15 16 17 18 19 20 21 22 23 24 25 26 27 28 29 30 31 32 33 34 35 36 37 38 39 40 41 42 43 44 45 46 47 48 49 50
000
ASUS43 KOAX 190802
RWRNE

WEATHER ROUNDUP FOR NEBRASKA
NATIONAL WEATHER SERVICE OMAHA NE
200 AM CST THU JAN 19 2017

NOTES: SATELLITE DATA IS BEING USED TO AUGMENT CLOUD COVER ABOVE
       12000 FEET.
       "FAIR" INDICATES FEW OR NO CLOUDS BELOW 12,000 FEET WITH NO
       SIGNIFICANT WEATHER AND/OR OBSTRUCTIONS TO VISIBILITY.

  * THESE STATIONS DO NOT REPORT WEATHER SUCH AS RAIN...SNOW OR FOG.

NEZ001>004-019>022-054>056-190900-
NEBRASKA PANHANDLE

CITY           SKY/WX    TMP DP  RH WIND       PRES   REMARKS
SCOTTSBLUFF    CLOUDY    27  19  72 N7        29.64S WCI  19
ALLIANCE       CLOUDY    19  15  84 SW6       29.62F WCI  11
CHADRON        CLOUDY    25  18  74 W9        29.64S WCI  15
SIDNEY         CLOUDY    24  20  84 NW8       29.65F WCI  15
$$

NEZ057>060-069>072-079>082-190900-
SOUTHWEST NEBRASKA

CITY           SKY/WX    TMP DP  RH WIND       PRES   REMARKS
NORTH PLATTE   FOG       28  27  96 SE6       29.69S VSB 1/4 WCI  22
IMPERIAL       CLOUDY    27  24  89 W5        29.67F FOG     WCI  22
LEXINGTON      CLOUDY    37  36  95 SE8       29.71S FOG     WCI  31
MCCOOK         FOG       30  30 100 NE3       29.69F VSB<1/4
OGALLALA       CLOUDY    23  21  92 W3        29.67F
$$

NEZ005>010-023>029-035>040-094-190900-
NORTH CENTRAL NEBRASKA

CITY           SKY/WX    TMP DP  RH WIND       PRES   REMARKS
VALENTINE      CLOUDY    32  25  75 SW13      29.64R WCI  22
AINSWORTH      CLEAR     34  33  96 S12       29.64F WCI  25
BROKEN BOW     CLEAR     35  34  96 CALM      29.69F FOG
O`NEILL        CLEAR     35  34  98 S6        29.69F WCI  30
ORD            CLEAR     33  32  96 SE3       29.71F
THEDFORD       CLEAR     35  33  92 SW9       29.66F WCI  28
$$

NEZ041-046>049-061>064-073>077-083>087-190900-
SOUTH CENTRAL NEBRASKA

CITY           SKY/WX    TMP DP  RH WIND       PRES   REMARKS
GRAND ISLAND   CLEAR     35  34  96 S13       29.76F WCI  26
AURORA         CLEAR     37  35  93 S8        29.77F WCI  30
HASTINGS       CLEAR     36  33  89 S8        29.76F WCI  30
HEBRON         CLEAR     38  35  89 S8        29.80F WCI  32
HOLDREGE       CLOUDY    37  36  94 SE7       29.72S FOG     WCI  32
KEARNEY *      PTCLDY    36  32  87 S7        29.74S WCI  30
YORK           PTCLDY    37  36  93 S9        29.79S WCI  31
$$

NEZ011>018-030>034-042>045-190900-
NORTHEAST NEBRASKA

CITY           SKY/WX    TMP DP  RH WIND       PRES   REMARKS
NORFOLK        CLEAR     37  33  85 S13       29.76S WCI  29
ALBION         PTCLDY    36  33  90 S7        29.75F WCI  30
BLAIR          CLEAR     37  33  89 S8        29.83S WCI  30
FREMONT        CLEAR     38  33  83 SE9       29.83S WCI  31
TEKAMAH        CLEAR     34  32  92 SE9       29.83F WCI  27
WAYNE          CLEAR     35  33  91 SW3       29.78F
$$

NEZ050>053-065>068-078-088>093-190900-
SOUTHEAST NEBRASKA

CITY           SKY/WX    TMP DP  RH WIND       PRES   REMARKS
LINCOLN        CLEAR     35  32  88 S10       29.83F WCI  27
OMAHA EPPLEY   PTCLDY    36  31  82 S12       29.86S WCI  28
BEATRICE       CLOUDY    37  34  88 SE7       29.83F WCI  32
FALLS CITY     CLOUDY    37  35  92 E3        29.88F
NEBRASKA CITY  PTCLDY    34  34 100 S12       29.86F FOG     WCI  25
PLATTSMOUTH    PTCLDY    36  32  87 SE12      29.85F WCI  27
$$

NEZ044-045-051>053-067-190900-
OMAHA AREA

CITY           SKY/WX    TMP DP  RH WIND       PRES   REMARKS
OMAHA EPPLEY   PTCLDY    36  31  82 S12       29.86S WCI  28
BLAIR          CLEAR     37  33  89 S8        29.83S WCI  30
FREMONT        CLEAR     38  33  83 SE9       29.83S WCI  31
MILLARD        CLEAR     38  34  87 SE5       29.85F WCI  34
OFFUTT AFB     CLEAR     34  34 100 E6        29.85F WCI  29
PLATTSMOUTH    PTCLDY    36  32  87 SE12      29.85F WCI  27
WAHOO          FAIR      35  32  88 SE6       29.83S WCI  30
$$




USA.gov is the U.S. government's official web portal to all federal, state and local government web resources and services.